, LA

(GMT )
Boothville

Weather History for KBVE - December, 2012

Change the Weather History Date:

Wednesday, December 5, 2012

  Actual Average Record
Temperature  
Mean Temperature 65 °F -  
Max Temperature 68 °F - - ()
Min Temperature 60 °F - - ()
Growing Degree Days 15 (Base 50)    
Moisture  
Dew Point 65 °F    
Average Humidity 98    
Maximum Humidity 100    
Minimum Humidity 90    
Precipitation  
Precipitation 1.00 in - - ()
Sea Level Pressure  
Sea Level Pressure 30.09 in    
Wind  
Wind Speed 6 mph (SE)    
Max Wind Speed 14 mph    
Max Gust Speed 24 mph    
Visibility 7 miles    
Events Rain    
T = Trace of Precipitation, MM = Missing Value Source: NWS Daily Summary

Daily Weather History Graph

Daily Weather History Graph

Search for Another Location

Airport or City:

Trip Planner

Search our weather history database for the weather conditions in past years. The results will help you decide how hot, cold, wet, or windy it might be!

Date:

Astronomy

Dec. 05, 2012 Rise Set
Actual Time 6:37 AM CST 4:59 PM CST
Civil Twilight 6:11 AM CST 5:24 PM CST
Nautical Twilight 5:42 AM CST 5:54 PM CST
Astronomical Twilight 5:13 AM CST 6:23 PM CST
Moon 11:25 PM CST (12/5) 11:21 AM CST (12/5)
Length of Visible Light 11h 13m
Length of Day
10h 21m
Waning Gibbous, 59% of the Moon is Illuminated
Dec 5
Waning Gibbous
Dec 6
Last Quarter
Dec 13
New
Dec 19
First Quarter
Dec 28
Full

Hourly Weather History & Observations

Time (CST) Temp. Dew Point Humidity Pressure Visibility Wind Dir Wind Speed Gust Speed Precip Events Conditions
12:51 AM 66.0 °F 64.9 °F 96% 30.13 in 9.0 mi East 3.5 mph - 0.06 in Rain Light Rain
1:51 AM 66.9 °F 64.9 °F 93% 30.13 in 10.0 mi SE 4.6 mph - 0.00 in Rain Light Rain
2:48 AM 68.0 °F 68.0 °F 100% 30.14 in 1.8 mi SW 5.8 mph - 0.13 in Rain Rain
2:51 AM 68.0 °F 68.0 °F 100% 30.14 in 1.8 mi WSW 6.9 mph - 0.15 in Rain Heavy Rain
3:06 AM 66.2 °F 66.2 °F 100% 30.14 in 1.0 mi SSW 13.8 mph 19.6 mph 0.13 in Rain Heavy Rain
3:15 AM 66.2 °F 66.2 °F 100% 30.14 in 1.2 mi SW 10.4 mph 24.2 mph 0.28 in Rain Heavy Rain
3:28 AM 66.2 °F 66.2 °F 100% 30.13 in 2.0 mi SSW 8.1 mph - 0.35 in Rain Heavy Rain
3:51 AM 66.9 °F 66.9 °F 100% 30.12 in 2.0 mi South 4.6 mph - 0.47 in Rain Rain
4:13 AM 66.2 °F 66.2 °F 100% 30.11 in 4.0 mi SE 6.9 mph - 0.11 in Rain Rain
4:51 AM 64.9 °F 64.9 °F 100% 30.09 in 8.0 mi ESE 10.4 mph - 0.15 in Rain Light Rain
5:07 AM 66.2 °F 66.2 °F 100% 30.09 in 9.0 mi SE 10.4 mph - 0.00 in   Mostly Cloudy
5:51 AM 66.0 °F 64.9 °F 96% 30.10 in 10.0 mi SSE 11.5 mph - 0.00 in   Overcast
6:51 AM 66.9 °F 66.0 °F 97% 30.11 in 10.0 mi SSE 13.8 mph - N/A   Scattered Clouds
8:51 AM 64.0 °F 63.0 °F 96% 30.14 in 7.0 mi SE 5.8 mph - 0.02 in Rain Light Rain
9:51 AM 66.0 °F 64.0 °F 93% 30.13 in 8.0 mi SE 5.8 mph - 0.05 in Rain Light Rain
10:51 AM 64.9 °F 64.9 °F 100% 30.12 in 9.0 mi Calm Calm - 0.01 in Rain Light Rain
11:51 AM 66.9 °F 66.0 °F 97% 30.10 in 9.0 mi NNW 3.5 mph - 0.01 in   Overcast
12:51 PM 66.9 °F 66.0 °F 97% 30.07 in 10.0 mi NE 3.5 mph - 0.00 in Rain Light Rain
1:51 PM 66.9 °F 64.0 °F 90% 30.05 in 5.0 mi Calm Calm - 0.00 in Rain Rain
2:40 PM 66.2 °F 66.2 °F 100% 30.05 in 4.0 mi SW 9.2 mph - 0.02 in Rain Light Rain
2:51 PM 66.0 °F 66.0 °F 100% 30.04 in 10.0 mi Calm Calm - 0.02 in   Overcast
3:51 PM 66.0 °F 64.9 °F 96% 30.03 in 10.0 mi Calm Calm - 0.00 in   Mostly Cloudy
4:51 PM 64.9 °F 64.9 °F 100% 30.04 in 8.0 mi Variable 4.6 mph - 0.02 in Rain Light Rain
5:51 PM 64.0 °F 64.0 °F 100% 30.04 in 10.0 mi NE 9.2 mph - 0.01 in   Partly Cloudy
6:51 PM 64.9 °F 64.0 °F 97% 30.04 in 10.0 mi East 9.2 mph - N/A   Partly Cloudy
7:51 PM 64.0 °F 63.0 °F 96% 30.04 in 9.0 mi East 8.1 mph - 0.00 in Rain Light Rain
8:51 PM 64.0 °F 62.1 °F 93% 30.05 in 10.0 mi East 5.8 mph - 0.03 in   Mostly Cloudy
9:51 PM 63.0 °F 62.1 °F 97% 30.04 in 10.0 mi East 3.5 mph - N/A   Mostly Cloudy
10:51 PM 62.1 °F 62.1 °F 100% 30.04 in 10.0 mi East 3.5 mph - N/A   Clear
11:51 PM 60.1 °F 60.1 °F 100% 30.04 in 4.0 mi East 3.5 mph - N/A   Mostly Cloudy